FENGYUN 1C DEB, 29977

Orbit data source: Space-Track

FENGYUN 1C DEB, 29977 is space debris in SSO originally from a launch on Mon, 10 May 1999 UTC launched from the Taiyaun Space Center, China (TSC). Fengyun 1C debris stems from the Chinese weather satellite Fengyun-1C, which was intentionally destroyed by a Chinese anti-satellite missile in 2007. This event dramatically increased the amount of space debris, with thousands of trackable fragments posing hazards to satellites and human spaceflight. The Fengyun 1C debris cloud has become a focal point in discussions about space sustainability and the need for international regulations to prevent the creation of new debris.

Loading next visibility...
Identifier
29977, 1999-025LB
Orbit
SSO
Country
Flag of CNCN / PRC
Related business
Manufacturer
Unknown
Mission
Spacecraft
Bus & Motor
Unknown
Mass
Unknown
Launch date (UTC)
1999-05-10 (26 years ago)
Launch vehicle
Unknown
Launch site
Taiyaun Space Center, China (TSC)
Object type
Payload
Rocket body
Debris
Shape & HBR
Unknown shape, 0.1 m
Radar Cross Section
Small (<0.1 m²)

Expand to show TLE details & history
Last TLE update: 1 day ago

TLE from 1 day ago
0 FENGYUN 1C DEB
1 29977U 99025LB  25302.34931490  .00002380  00000-0  13966-2 0  9994
2 29977  98.3996 167.6617 0130766  22.1025  34.5364 14.04813954957374
Epoch: 2025-10-29T08:23Z
TLE epoch observation values (Epoch: 2025-10-29T08:23:00.807Z)
Latitude
56.64753°
Longitude
-8.9095°
Altitude
808.853 km
Speed
7.494 km/s
True Right ascension
10h 19m 04s
True Declination
56° 29' 26"
Sunlit
Object was in daylight at epoch
Visualization orbit readout
Latitude
Unknown
Longitude
Unknown
Altitude
Unknown
Speed
Unknown
Apparent Right ascension
Unknown
Apparent Declination
Unknown
Sunlit
N/A
Visualization observer readout
Local Sidereal Time
12:58:19
Azimuth
Unknown
Elevation
Unknown
Doppler factor
Unknown
Orbital elements
Apogee altitude
969.174 km
Perigee altitude
779.499 km
Semi-major axis
7,252.474 km
Eccentricity
0.01308
Inclination
98.3996°
RAAN
167.6617°
Arg. of periapsis
22.1025°
True anomaly
35.39748°
Mean anomaly
34.5364°
Eccentric anomaly
34.96578°
Mean motion
3.5141 °/min
Orbital period
102.44 mins
BSTAR
0.0013966
Loading maneuver chart data...
Computing Atmospheric mass density...

Documentation

Showing up to 5 results
|